Regional Weather Roundup
Issued by NWS Spokane, WA

Home | Current Version | Previous Version | Text Only | Print | Product List | Glossary On
Versions: 1 2 3 4 5 6 7 8 9 10 11 12 13 14 15 16 17 18 19 20 21 22 23 24 25 26 27 28 29 30 31 32 33 34 35 36 37 38 39 40 41 42 43 44 45 46 47 48 49 50
207
NZUS01 KOTX 220310
RWROTX

Eastern Washington/Northern Idaho Roundup
National Weather Service, Spokane WA
800 PM PDT FRI JUL 21 2017

Note: "fair" indicated few or no clouds below 12,000 feet with no
significant weather and/or obstructions to visibility.

...Northeast Washington and Northern Idaho Panhandle...

CITY           SKY/WX    TMP DP  RH WIND       PRES   REMARKS
Spokane Intl   PTCLDY    77  35  21 W5        30.08S
Spokane Downto CLEAR     76  40  27 CALM      30.06S
Coeur d Alene  CLEAR     73  48  41 SW3       30.08S
Deer Park      PTCLDY    77  35  21 W3        30.07S
Sandpoint      PTCLDY    70  50  49 CALM      30.07S
Bonners Ferry  FAIR      73  41  31 S6        30.06S

...Southeast Washington and southern Idaho Panhandle...

CITY           SKY/WX    TMP DP  RH WIND       PRES   REMARKS
Walla Walla    CLEAR     83  33  16 SW5       30.03R
Pullman/Moscow PTCLDY    74  34  23 W5        30.11R
Lewiston       CLEAR     82  37  20 N8        30.03R
Lowell           N/A     71  49  45 CALM      30.02R
Grangeville    FAIR      73  39  29 N7        30.12R

...Columbia Basin...

CITY           SKY/WX    TMP DP  RH WIND       PRES   REMARKS
Ephrata        PTCLDY    81  37  20 SW7       30.02S
Moses Lake     PTCLDY    79  43  27 SE6       30.02F
Pasco          PTCLDY    84  46  26 E7        30.00R
Richland       PTCLDY    83  47  28 NE5       30.00R
Hermiston      CLEAR     83  40  21 CALM      29.99S
Pendleton      CLEAR     77  34  21 NW3       30.04R

...East Slopes Cascades...

CITY           SKY/WX    TMP DP  RH WIND       PRES   REMARKS
The Dalles     CLEAR     83  42  23 NW20      30.00S
Yakima         PTCLDY    85  47  26 CALM      30.02R
Ellensburg     PTCLDY    76  51  41 NW16G26   30.07R
Stampede Pass  PTCLDY    59  49  69 VRB5      30.22R
Wenatchee      PTCLDY    79  47  32 E8        30.02R
Omak           PTCLDY    80  33  18 CALM      30.02S
Sunnyside        N/A     78  53  43 E3        29.99S

...Southern British Columbia...

CITY           SKY/WX    TMP DP  RH WIND       PRES   REMARKS
Penticton      MOCLDY    73  48  40 NW6       30.03S
Castlegar      MOCLDY    72  54  53 E2        30.03S
Cranbrook      MOCLDY    72  39  30 N6        30.06R
Osoyoos          N/A     75  52  43 SE1         N/A
Creston          N/A     72  50  46 W1          N/A

...Western Montana...

CITY           SKY/WX    TMP DP  RH WIND       PRES   REMARKS
Kalispell      PTCLDY    73  35  25 CALM      30.05R
Libby            N/A     75  37  25 N7        30.05R
Missoula       CLEAR     76  28  17 NW10      30.07R

...Neighboring Cities...

CITY           SKY/WX    TMP DP  RH WIND       PRES   REMARKS
Seattle        MOCLDY    70  52  52 W5        30.13R
Portland       PTCLDY    80  56  43 N8        30.08S
Boise          CLEAR     86  36  16 NW7       29.97R
Great Falls    CLEAR     73  26  17 N10       30.03R
Calgary        MOCLDY    68  39  34 NW7       30.03R



USA.gov is the U.S. government's official web portal to all federal, state and local government web resources and services.